This is the latest recevied weather packets stored in our database for station/object KJ6LNH-1. If no packets are shown the sender has not sent any weather packets the latest 10 day(s).
| Time | Temp. | Humidity | Pressure | Rain* | Wind** | Luminosity | Snow |
|---|---|---|---|---|---|---|---|
| 1777433408 | 15.56° C | 70% | 1016.8 hPa | 0 mm | - | - | - |
| 1777433108 | 16.11° C | 68% | 1016.7 hPa | 0 mm | - | - | - |
| 1777432207 | 16.67° C | 62% | 1016.6 hPa | 0 mm | - | - | - |
| 1777431908 | 17.22° C | 59% | 1016.6 hPa | 0 mm | - | - | - |
| 1777431307 | 17.22° C | 56% | 1016.4 hPa | 0 mm | - | - | - |
| 1777431007 | 17.22° C | 56% | 1016.4 hPa | 0 mm | - | - | - |
| 1777430708 | 17.78° C | 55% | 1016.4 hPa | 0 mm | - | - | - |
| 1777430407 | 17.78° C | 54% | 1016.3 hPa | 0 mm | - | - | - |
| 1777429807 | 18.33° C | 53% | 1016.3 hPa | 0 mm | - | - | - |
| 1777429508 | 18.33° C | 52% | 1016.3 hPa | 0 mm | - | - | - |
| 1777428908 | 19.44° C | 47% | 1016.3 hPa | 0 mm | - | - | - |
| 1777428607 | 19.44° C | 44% | 1016.3 hPa | 0 mm | - | - | - |
| 1777428310 | 20° C | 40% | 1016.3 hPa | 0 mm | - | - | - |
| 1777428007 | 20° C | 40% | 1016.3 hPa | 0 mm | - | - | - |
| 1777427707 | 20.56° C | 39% | 1016.3 hPa | 0 mm | - | - | - |
| 1777427107 | 21.11° C | 38% | 1016.3 hPa | 0 mm | - | - | - |
| 1777426807 | 21.67° C | 37% | 1016.3 hPa | 0 mm | - | - | - |
| 1777425908 | 21.67° C | 38% | 1016.3 hPa | 0 mm | - | - | - |
| 1777425608 | 22.22° C | 38% | 1016.3 hPa | 0 mm | - | - | - |
| 1777425307 | 22.78° C | 35% | 1016.3 hPa | 0 mm | - | - | - |
| 1777423808 | 25° C | 33% | 1016.4 hPa | 0 mm | - | - | - |
| 1777423508 | 25° C | 32% | 1016.4 hPa | 0 mm | - | - | - |
| 1777423209 | 24.44° C | 33% | 1016.5 hPa | 0 mm | - | - | - |
| 1777422908 | 24.44° C | 34% | 1016.5 hPa | 0 mm | - | - | - |
| 1777422608 | 25° C | 34% | 1016.5 hPa | 0 mm | - | - | - |
* Rain latest hour (hover to see other rain measurements)
** Current wind speed in m/s (hover to see current wind gust speed)